Time,TemperatureF,DewpointF,PressureIn,WindDirection,WindDirectionDegrees,WindSpeedMPH,WindSpeedGustMPH,Humidity,HourlyPrecipIn,Conditions,Clouds,dailyrainin,SoftwareType,DateUTC
2013-06-06 00:00:00,65.5,43.6,30.11,NW,318,0.0,0.0,45,0.00,,SCT,0.00,VWS V14.01,2013-06-06 07:00:00,
2013-06-06 00:04:00,65.3,43.4,30.11,NW,318,0.0,0.0,45,0.00,,SCT,0.00,VWS V14.01,2013-06-06 07:04:00,
2013-06-06 00:09:00,65.1,43.8,30.11,NW,318,0.0,0.0,46,0.00,,SCT,0.00,VWS V14.01,2013-06-06 07:09:00,
2013-06-06 00:14:00,64.9,43.7,30.11,NW,318,0.0,0.0,46,0.00,,SCT,0.00,VWS V14.01,2013-06-06 07:14:00,
2013-06-06 00:15:00,64.8,43.5,30.11,NW,318,0.0,0.0,46,0.00,,SCT,0.00,VWS V14.01,2013-06-06 07:15:00,
2013-06-06 00:19:00,64.6,43.9,30.11,NW,318,0.0,0.0,47,0.00,,SCT,0.00,VWS V14.01,2013-06-06 07:19:00,
2013-06-06 00:24:00,64.4,43.8,30.11,NW,324,0.0,0.0,47,0.00,,SCT,0.00,VWS V14.01,2013-06-06 07:24:00,
2013-06-06 00:29:00,64.2,44.1,30.11,NW,325,0.0,0.0,48,0.00,,SCT,0.00,VWS V14.01,2013-06-06 07:29:00,
2013-06-06 00:30:00,64.2,44.1,30.11,NW,325,0.0,0.0,48,0.00,,SCT,0.00,VWS V14.01,2013-06-06 07:30:00,
2013-06-06 00:34:00,64.0,44.0,30.11,NNW,333,0.0,0.0,48,0.00,,SCT,0.00,VWS V14.01,2013-06-06 07:34:00,
2013-06-06 00:39:00,63.9,43.8,30.11,NNW,332,0.0,0.0,48,0.00,,SCT,0.00,VWS V14.01,2013-06-06 07:39:00,
2013-06-06 00:44:00,63.9,43.8,30.11,NNW,334,0.0,0.0,48,0.00,,SCT,0.00,VWS V14.01,2013-06-06 07:44:00,
2013-06-06 00:45:00,63.9,43.8,30.11,NNW,334,0.0,0.0,48,0.00,,SCT,0.00,VWS V14.01,2013-06-06 07:45:00,
2013-06-06 00:49:00,63.7,44.2,30.11,NNW,339,0.0,0.0,49,0.00,,SCT,0.00,VWS V14.01,2013-06-06 07:49:00,
2013-06-06 00:55:00,63.5,43.5,30.11,NNW,336,0.0,0.0,48,0.00,,SCT,0.00,VWS V14.01,2013-06-06 07:55:00,
2013-06-06 01:00:00,63.3,43.3,30.11,NNW,335,0.0,0.0,48,0.00,,SCT,0.00,VWS V14.01,2013-06-06 08:00:00,
2013-06-06 01:05:00,63.3,42.8,30.11,NNW,335,0.0,0.0,47,0.00,,SCT,0.00,VWS V14.01,2013-06-06 08:05:00,
2013-06-06 01:10:00,63.1,42.0,30.11,NW,326,0.0,0.0,46,0.00,,SCT,0.00,VWS V14.01,2013-06-06 08:10:00,
2013-06-06 01:15:00,63.1,42.0,30.11,NW,326,0.0,0.0,46,0.00,,SCT,0.00,VWS V14.01,2013-06-06 08:15:00,
2013-06-06 01:20:00,63.0,41.3,30.11,NW,326,0.0,0.0,45,0.00,,SCT,0.00,VWS V14.01,2013-06-06 08:20:00,
2013-06-06 01:25:00,63.0,41.3,30.11,NW,326,0.0,0.0,45,0.00,,SCT,0.00,VWS V14.01,2013-06-06 08:25:00,
2013-06-06 01:30:00,62.8,40.6,30.11,NW,326,0.0,0.0,44,0.00,,SCT,0.00,VWS V14.01,2013-06-06 08:30:00,
2013-06-06 01:35:00,62.8,40.6,30.11,NW,326,0.0,0.0,44,0.00,,SCT,0.00,VWS V14.01,2013-06-06 08:35:00,
2013-06-06 01:40:00,62.8,40.6,30.11,NW,326,0.0,0.0,44,0.00,,SCT,0.00,VWS V14.01,2013-06-06 08:40:00,
2013-06-06 01:45:00,62.8,40.6,30.11,NW,326,0.0,0.0,44,0.00,,SCT,0.00,VWS V14.01,2013-06-06 08:45:00,
2013-06-06 01:50:00,62.6,40.4,30.11,NW,326,0.0,0.0,44,0.00,,SCT,0.00,VWS V14.01,2013-06-06 08:50:00,
2013-06-06 01:55:00,62.6,40.4,30.11,NW,326,0.0,0.0,44,0.00,,SCT,0.00,VWS V14.01,2013-06-06 08:55:00,
2013-06-06 02:00:00,62.4,40.2,30.11,NW,326,0.0,0.0,44,0.00,,SCT,0.00,VWS V14.01,2013-06-06 09:00:00,
2013-06-06 02:05:00,62.4,40.2,30.08,NW,326,0.0,0.0,44,0.00,,SCT,0.00,VWS V14.01,2013-06-06 09:05:00,
2013-06-06 02:11:00,62.4,40.2,30.08,NW,326,0.0,0.0,44,0.00,,SCT,0.00,VWS V14.01,2013-06-06 09:11:00,
2013-06-06 02:15:00,62.2,40.7,30.08,NW,326,0.0,0.0,45,0.00,,SCT,0.00,VWS V14.01,2013-06-06 09:15:00,
2013-06-06 02:16:00,62.2,40.7,30.08,NW,326,0.0,0.0,45,0.00,,SCT,0.00,VWS V14.01,2013-06-06 09:16:00,
2013-06-06 02:21:00,62.1,41.1,30.08,NW,326,0.0,0.0,46,0.00,,SCT,0.00,VWS V14.01,2013-06-06 09:21:00,
2013-06-06 02:26:00,62.1,41.1,30.08,NW,326,0.0,0.0,46,0.00,,SCT,0.00,VWS V14.01,2013-06-06 09:26:00,
2013-06-06 02:30:00,62.1,41.1,30.08,NW,326,0.0,0.0,46,0.00,,SCT,0.00,VWS V14.01,2013-06-06 09:30:00,
2013-06-06 02:31:00,62.1,41.1,30.08,NW,326,0.0,0.0,46,0.00,,SCT,0.00,VWS V14.01,2013-06-06 09:31:00,
2013-06-06 02:36:00,62.1,41.1,30.08,NW,326,0.0,0.0,46,0.00,,SCT,0.00,VWS V14.01,2013-06-06 09:36:00,
2013-06-06 02:41:00,62.1,41.1,30.08,NW,326,0.0,0.0,46,0.00,,SCT,0.00,VWS V14.01,2013-06-06 09:41:00,
2013-06-06 02:45:00,62.1,41.1,30.08,NW,326,0.0,0.0,46,0.00,,SCT,0.00,VWS V14.01,2013-06-06 09:45:00,
2013-06-06 02:46:00,61.9,40.9,30.08,NW,326,0.0,0.0,46,0.00,,SCT,0.00,VWS V14.01,2013-06-06 09:46:00,
2013-06-06 02:51:00,61.9,41.5,30.08,NW,326,0.0,0.0,47,0.00,,SCT,0.00,VWS V14.01,2013-06-06 09:51:00,
2013-06-06 02:56:00,61.7,41.3,30.08,NW,326,0.0,0.0,47,0.00,,SCT,0.00,VWS V14.01,2013-06-06 09:56:00,
2013-06-06 03:00:00,61.7,41.3,30.08,NW,326,0.0,0.0,47,0.00,,SCT,0.00,VWS V14.01,2013-06-06 10:00:00,
2013-06-06 03:01:00,61.7,41.3,30.08,NW,326,0.0,0.0,47,0.00,,SCT,0.00,VWS V14.01,2013-06-06 10:01:00,
2013-06-06 03:07:00,61.5,41.7,30.08,NW,326,0.0,0.0,48,0.00,,SCT,0.00,VWS V14.01,2013-06-06 10:07:00,
2013-06-06 03:12:00,61.5,41.7,30.08,NW,326,0.0,0.0,48,0.00,,SCT,0.00,VWS V14.01,2013-06-06 10:12:00,
2013-06-06 03:15:00,61.5,41.7,30.08,NW,326,0.0,0.0,48,0.00,,SCT,0.00,VWS V14.01,2013-06-06 10:15:00,
2013-06-06 03:17:00,61.3,41.5,30.08,NW,326,0.0,0.0,48,0.00,,SCT,0.00,VWS V14.01,2013-06-06 10:17:00,
2013-06-06 03:22:00,61.3,42.0,30.08,NW,326,0.0,0.0,49,0.00,,SCT,0.00,VWS V14.01,2013-06-06 10:22:00,
2013-06-06 03:27:00,61.2,41.9,30.08,NW,326,0.0,0.0,49,0.00,,SCT,0.00,VWS V14.01,2013-06-06 10:27:00,
2013-06-06 03:30:00,61.2,41.9,30.08,NW,326,0.0,0.0,49,0.00,,SCT,0.00,VWS V14.01,2013-06-06 10:30:00,
2013-06-06 03:32:00,61.0,41.7,30.08,NW,326,0.0,0.0,49,0.00,,SCT,0.00,VWS V14.01,2013-06-06 10:32:00,
2013-06-06 03:37:00,60.8,42.1,30.08,NW,326,0.0,0.0,50,0.00,,SCT,0.00,VWS V14.01,2013-06-06 10:37:00,
2013-06-06 03:42:00,60.8,41.0,30.08,NW,326,0.0,0.0,48,0.00,,SCT,0.00,VWS V14.01,2013-06-06 10:42:00,
2013-06-06 03:45:00,60.8,41.0,30.08,NW,326,0.0,0.0,48,0.00,,SCT,0.00,VWS V14.01,2013-06-06 10:45:00,
2013-06-06 03:47:00,60.6,40.8,30.08,NW,326,0.0,0.0,48,0.00,,SCT,0.00,VWS V14.01,2013-06-06 10:47:00,
2013-06-06 03:52:00,60.8,40.5,30.08,NW,326,0.0,0.0,47,0.00,,SCT,0.00,VWS V14.01,2013-06-06 10:52:00,
2013-06-06 03:57:00,60.8,40.5,30.08,NW,326,0.0,0.0,47,0.00,,SCT,0.00,VWS V14.01,2013-06-06 10:57:00,
2013-06-06 04:00:00,60.6,40.8,30.08,NW,326,0.0,0.0,48,0.00,,SCT,0.00,VWS V14.01,2013-06-06 11:00:00,
2013-06-06 04:02:00,60.6,40.8,30.08,NW,326,0.0,0.0,48,0.00,,SCT,0.00,VWS V14.01,2013-06-06 11:02:00,
2013-06-06 04:07:00,60.6,40.8,30.08,NW,326,0.0,0.0,48,0.00,,SCT,0.00,VWS V14.01,2013-06-06 11:07:00,
2013-06-06 04:13:00,60.6,40.8,30.08,NW,326,0.0,0.0,48,0.00,,SCT,0.00,VWS V14.01,2013-06-06 11:13:00,
2013-06-06 04:15:00,60.6,40.8,30.08,NW,326,0.0,0.0,48,0.00,,SCT,0.00,VWS V14.01,2013-06-06 11:15:00,
2013-06-06 04:18:00,60.4,40.7,30.08,NW,326,0.0,0.0,48,0.00,,SCT,0.00,VWS V14.01,2013-06-06 11:18:00,
2013-06-06 04:23:00,60.4,40.7,30.08,NW,326,0.0,0.0,48,0.00,,SCT,0.00,VWS V14.01,2013-06-06 11:23:00,
2013-06-06 04:28:00,60.4,41.2,30.08,NW,326,0.0,0.0,49,0.00,,SCT,0.00,VWS V14.01,2013-06-06 11:28:00,
2013-06-06 04:30:00,60.3,41.0,30.08,NW,326,0.0,0.0,49,0.00,,SCT,0.00,VWS V14.01,2013-06-06 11:30:00,
2013-06-06 04:33:00,60.1,40.9,30.08,NW,326,0.0,0.0,49,0.00,,SCT,0.00,VWS V14.01,2013-06-06 11:33:00,
2013-06-06 04:38:00,59.9,40.7,30.08,NW,326,0.0,0.0,49,0.00,,SCT,0.00,VWS V14.01,2013-06-06 11:38:00,
2013-06-06 04:43:00,59.7,40.5,30.08,NW,326,0.0,0.0,49,0.00,,SCT,0.00,VWS V14.01,2013-06-06 11:43:00,
2013-06-06 04:45:00,59.7,40.5,30.08,NW,326,0.0,0.0,49,0.00,,SCT,0.00,VWS V14.01,2013-06-06 11:45:00,
2013-06-06 04:48:00,59.7,41.1,30.08,NW,326,0.0,0.0,50,0.00,,SCT,0.00,VWS V14.01,2013-06-06 11:48:00,
2013-06-06 04:53:00,59.5,40.9,30.08,NW,326,0.0,0.0,50,0.00,,SCT,0.00,VWS V14.01,2013-06-06 11:53:00,
2013-06-06 04:58:00,59.5,40.9,30.08,NW,326,0.0,0.0,50,0.00,,SCT,0.00,VWS V14.01,2013-06-06 11:58:00,
2013-06-06 05:00:00,59.5,40.9,30.08,NW,326,0.0,0.0,50,0.00,,SCT,0.00,VWS V14.01,2013-06-06 12:00:00,
2013-06-06 05:03:00,59.5,40.9,30.08,NW,326,0.0,0.0,50,0.00,,SCT,0.00,VWS V14.01,2013-06-06 12:03:00,
2013-06-06 05:08:00,59.5,40.9,30.08,NW,326,0.0,0.0,50,0.00,,SCT,0.00,VWS V14.01,2013-06-06 12:08:00,
2013-06-06 05:13:00,59.5,40.9,30.08,NW,326,0.0,0.0,50,0.00,,SCT,0.00,VWS V14.01,2013-06-06 12:13:00,
2013-06-06 05:15:00,59.5,41.4,30.08,NW,326,0.0,0.0,51,0.00,,SCT,0.00,VWS V14.01,2013-06-06 12:15:00,
2013-06-06 05:18:00,59.5,40.9,30.08,NW,326,0.0,0.0,50,0.00,,SCT,0.00,VWS V14.01,2013-06-06 12:18:00,
2013-06-06 05:23:00,59.5,41.4,30.08,NW,326,0.0,0.0,51,0.00,,SCT,0.00,VWS V14.01,2013-06-06 12:23:00,
2013-06-06 05:28:00,59.4,41.2,30.08,NW,326,0.0,0.0,51,0.00,,SCT,0.00,VWS V14.01,2013-06-06 12:28:00,
2013-06-06 05:30:00,59.4,41.2,30.08,NW,326,0.0,0.0,51,0.00,,SCT,0.00,VWS V14.01,2013-06-06 12:30:00,
2013-06-06 05:33:00,59.4,41.2,30.08,NW,326,0.0,0.0,51,0.00,,SCT,0.00,VWS V14.01,2013-06-06 12:33:00,
2013-06-06 05:38:00,59.2,41.1,30.08,NW,326,0.0,0.0,51,0.00,,SCT,0.00,VWS V14.01,2013-06-06 12:38:00,
2013-06-06 05:43:00,59.2,41.1,30.08,NW,326,0.0,0.0,51,0.00,,SCT,0.00,VWS V14.01,2013-06-06 12:43:00,
2013-06-06 05:45:00,59.2,41.1,30.08,NW,326,0.0,0.0,51,0.00,,SCT,0.00,VWS V14.01,2013-06-06 12:45:00,
2013-06-06 05:49:00,59.2,41.1,30.08,NW,326,0.0,0.0,51,0.00,,SCT,0.00,VWS V14.01,2013-06-06 12:49:00,
2013-06-06 05:54:00,59.0,40.9,30.08,NW,326,0.0,0.0,51,0.00,,SCT,0.00,VWS V14.01,2013-06-06 12:54:00,
2013-06-06 05:59:00,58.8,41.2,30.08,NW,326,0.0,0.0,52,0.00,,SCT,0.00,VWS V14.01,2013-06-06 12:59:00,
2013-06-06 06:00:00,58.8,41.2,30.08,NW,326,0.0,0.0,52,0.00,,SCT,0.00,VWS V14.01,2013-06-06 13:00:00,
2013-06-06 06:04:00,58.8,41.2,30.08,NW,326,0.0,0.0,52,0.00,,SCT,0.00,VWS V14.01,2013-06-06 13:04:00,
2013-06-06 06:09:00,58.6,41.1,30.08,NW,326,0.0,0.0,52,0.00,,SCT,0.00,VWS V14.01,2013-06-06 13:09:00,
2013-06-06 06:14:00,58.6,41.1,30.08,NW,326,0.0,0.0,52,0.00,,SCT,0.00,VWS V14.01,2013-06-06 13:14:00,
2013-06-06 06:15:00,58.6,41.1,30.08,NW,326,0.0,0.0,52,0.00,,SCT,0.00,VWS V14.01,2013-06-06 13:15:00,
2013-06-06 06:19:00,58.3,41.2,30.08,NW,326,0.0,0.0,53,0.00,,SCT,0.00,VWS V14.01,2013-06-06 13:19:00,
2013-06-06 06:24:00,57.2,41.2,30.08,NW,326,0.0,0.0,55,0.00,,SCT,0.00,VWS V14.01,2013-06-06 13:24:00,
2013-06-06 06:29:00,56.7,41.6,30.08,NW,326,0.0,0.0,57,0.00,,SCT,0.00,VWS V14.01,2013-06-06 13:29:00,
2013-06-06 06:30:00,56.7,41.6,30.08,NW,326,0.0,0.0,57,0.00,,SCT,0.00,VWS V14.01,2013-06-06 13:30:00,
2013-06-06 06:34:00,56.5,41.5,30.11,NW,326,0.0,0.0,57,0.00,,SCT,0.00,VWS V14.01,2013-06-06 13:34:00,
2013-06-06 06:39:00,56.5,42.3,30.11,NW,326,0.0,0.0,59,0.00,,SCT,0.00,VWS V14.01,2013-06-06 13:39:00,
2013-06-06 06:44:00,56.5,41.9,30.11,NW,326,0.0,0.0,58,0.00,,SCT,0.00,VWS V14.01,2013-06-06 13:44:00,
2013-06-06 06:45:00,56.5,41.9,30.11,NW,326,0.0,0.0,58,0.00,,SCT,0.00,VWS V14.01,2013-06-06 13:45:00,
2013-06-06 06:49:00,56.5,42.3,30.11,NW,326,0.0,0.0,59,0.00,,SCT,0.00,VWS V14.01,2013-06-06 13:49:00,
2013-06-06 06:54:00,56.5,42.3,30.11,NW,326,0.0,0.0,59,0.00,,SCT,0.00,VWS V14.01,2013-06-06 13:54:00,
2013-06-06 06:59:00,56.5,42.8,30.11,NNW,329,0.0,0.0,60,0.00,,SCT,0.00,VWS V14.01,2013-06-06 13:59:00,
2013-06-06 07:00:00,56.5,42.8,30.11,NNW,329,0.0,0.0,60,0.00,,SCT,0.00,VWS V14.01,2013-06-06 14:00:00,
2013-06-06 07:04:00,56.7,43.0,30.11,SE,129,0.0,0.0,60,0.00,,SCT,0.00,VWS V14.01,2013-06-06 14:04:00,
2013-06-06 07:09:00,56.7,43.4,30.11,SE,134,0.0,0.0,61,0.00,,SCT,0.00,VWS V14.01,2013-06-06 14:09:00,
2013-06-06 07:14:00,56.8,44.0,30.11,SE,134,0.0,0.0,62,0.00,,SCT,0.00,VWS V14.01,2013-06-06 14:14:00,
2013-06-06 07:15:00,56.8,44.0,30.11,SE,134,0.0,0.0,62,0.00,,SCT,0.00,VWS V14.01,2013-06-06 14:15:00,
2013-06-06 07:19:00,57.0,43.7,30.08,SE,134,0.0,0.0,61,0.00,,SCT,0.00,VWS V14.01,2013-06-06 14:19:00,
2013-06-06 07:25:00,57.2,43.9,30.08,SE,134,0.0,0.0,61,0.00,,SCT,0.00,VWS V14.01,2013-06-06 14:25:00,
2013-06-06 07:30:00,57.4,44.5,30.08,SE,134,0.0,0.0,62,0.00,,SCT,0.00,VWS V14.01,2013-06-06 14:30:00,
2013-06-06 07:35:00,57.6,44.7,30.11,SE,134,0.0,0.0,62,0.00,,SCT,0.00,VWS V14.01,2013-06-06 14:35:00,
2013-06-06 07:40:00,57.7,44.8,30.11,SE,134,0.0,0.0,62,0.00,,SCT,0.00,VWS V14.01,2013-06-06 14:40:00,
2013-06-06 07:45:00,58.1,44.7,30.11,SE,134,0.0,0.0,61,0.00,,SCT,0.00,VWS V14.01,2013-06-06 14:45:00,
2013-06-06 07:50:00,58.6,44.4,30.11,SE,134,0.0,0.0,59,0.00,,SCT,0.00,VWS V14.01,2013-06-06 14:50:00,
2013-06-06 07:55:00,59.2,44.4,30.11,SE,134,0.0,0.0,58,0.00,,SCT,0.00,VWS V14.01,2013-06-06 14:55:00,
2013-06-06 08:00:00,59.4,45.5,30.11,SE,134,0.0,0.0,60,0.00,,SCT,0.00,VWS V14.01,2013-06-06 15:00:00,
2013-06-06 08:05:00,59.7,45.4,30.11,SE,134,0.0,0.0,59,0.00,,SCT,0.00,VWS V14.01,2013-06-06 15:05:00,
2013-06-06 08:10:00,59.9,45.5,30.11,SE,134,0.0,0.0,59,0.00,,SCT,0.00,VWS V14.01,2013-06-06 15:10:00,
2013-06-06 08:15:00,60.1,45.7,30.11,SE,134,0.0,0.0,59,0.00,,SCT,0.00,VWS V14.01,2013-06-06 15:15:00,
2013-06-06 08:20:00,60.3,45.9,30.11,SE,134,0.0,0.0,59,0.00,,SCT,0.00,VWS V14.01,2013-06-06 15:20:00,
2013-06-06 08:25:00,60.6,47.1,30.11,SE,134,0.0,0.0,61,0.00,,SCT,0.00,VWS V14.01,2013-06-06 15:25:00,
2013-06-06 08:30:00,61.0,46.1,30.11,SE,134,0.0,0.0,58,0.00,,SCT,0.00,VWS V14.01,2013-06-06 15:30:00,
2013-06-06 08:35:00,61.2,45.4,30.11,SE,134,0.0,0.0,56,0.00,,SCT,0.00,VWS V14.01,2013-06-06 15:35:00,
2013-06-06 08:40:00,61.5,45.2,30.11,SE,134,0.0,0.0,55,0.00,,SCT,0.00,VWS V14.01,2013-06-06 15:40:00,
2013-06-06 08:45:00,61.9,45.1,30.11,SE,134,0.0,0.0,54,0.00,,SCT,0.00,VWS V14.01,2013-06-06 15:45:00,
2013-06-06 08:51:00,62.1,44.2,30.11,SE,134,0.0,0.0,52,0.00,,SCT,0.00,VWS V14.01,2013-06-06 15:51:00,
2013-06-06 08:56:00,62.4,44.6,30.11,SE,134,0.0,0.0,52,0.00,,SCT,0.00,VWS V14.01,2013-06-06 15:56:00,
2013-06-06 09:00:00,62.6,45.2,30.11,SE,134,0.0,0.0,53,0.00,,SCT,0.00,VWS V14.01,2013-06-06 16:00:00,
2013-06-06 09:01:00,62.8,45.4,30.11,SSW,192,0.0,0.0,53,0.00,,SCT,0.00,VWS V14.01,2013-06-06 16:01:00,
2013-06-06 09:06:00,63.1,45.2,30.11,SW,236,0.0,0.0,52,0.00,,SCT,0.00,VWS V14.01,2013-06-06 16:06:00,
2013-06-06 09:11:00,63.7,43.6,30.11,South,177,0.0,0.0,48,0.00,,SCT,0.00,VWS V14.01,2013-06-06 16:11:00,
2013-06-06 09:15:00,64.0,44.5,30.11,South,178,0.0,0.0,49,0.00,,SCT,0.00,VWS V14.01,2013-06-06 16:15:00,
2013-06-06 09:16:00,64.0,44.0,30.11,South,178,0.0,0.0,48,0.00,,SCT,0.00,VWS V14.01,2013-06-06 16:16:00,
2013-06-06 09:21:00,64.6,45.0,30.11,SSW,209,0.0,0.0,49,0.00,,SCT,0.00,VWS V14.01,2013-06-06 16:21:00,
2013-06-06 09:26:00,65.1,43.8,30.11,SE,144,0.0,0.0,46,0.00,,SCT,0.00,VWS V14.01,2013-06-06 16:26:00,
2013-06-06 09:30:00,65.1,43.8,30.11,SSE,154,0.0,0.0,46,0.00,,SCT,0.00,VWS V14.01,2013-06-06 16:30:00,
2013-06-06 09:31:00,65.1,43.3,30.11,SSE,155,0.0,0.0,45,0.00,,SCT,0.00,VWS V14.01,2013-06-06 16:31:00,
2013-06-06 09:36:00,65.5,43.6,30.11,South,179,0.0,0.0,45,0.00,,SCT,0.00,VWS V14.01,2013-06-06 16:36:00,
2013-06-06 09:41:00,65.7,43.8,30.11,NW,306,0.0,0.0,45,0.00,,SCT,0.00,VWS V14.01,2013-06-06 16:41:00,
2013-06-06 09:45:00,66.0,44.1,30.11,SE,138,0.0,4.0,45,0.00,,SCT,0.00,VWS V14.01,2013-06-06 16:45:00,
2013-06-06 09:47:00,66.4,44.4,30.11,SE,128,0.0,0.0,45,0.00,,SCT,0.00,VWS V14.01,2013-06-06 16:47:00,
2013-06-06 09:52:00,66.7,43.5,30.11,NW,325,0.0,0.0,43,0.00,,SCT,0.00,VWS V14.01,2013-06-06 16:52:00,
2013-06-06 09:57:00,66.9,44.3,30.11,NNW,335,0.0,0.0,44,0.00,,SCT,0.00,VWS V14.01,2013-06-06 16:57:00,
2013-06-06 10:00:00,66.9,43.7,30.11,NNW,342,0.0,0.0,43,0.00,,SCT,0.00,VWS V14.01,2013-06-06 17:00:00,
2013-06-06 10:02:00,67.1,43.9,30.11,NNW,342,0.0,0.0,43,0.00,,SCT,0.00,VWS V14.01,2013-06-06 17:02:00,
2013-06-06 10:07:00,67.3,44.0,30.11,WNW,284,0.0,0.0,43,0.00,,SCT,0.00,VWS V14.01,2013-06-06 17:07:00,
2013-06-06 10:12:00,67.8,43.9,30.11,SW,226,0.0,0.0,42,0.00,,SCT,0.00,VWS V14.01,2013-06-06 17:12:00,
2013-06-06 10:15:00,68.0,43.5,30.11,South,185,0.0,0.0,41,0.00,,SCT,0.00,VWS V14.01,2013-06-06 17:15:00,
2013-06-06 10:17:00,68.2,43.0,30.11,South,176,0.0,0.0,40,0.00,,SCT,0.00,VWS V14.01,2013-06-06 17:17:00,
2013-06-06 10:22:00,68.4,43.1,30.11,SSW,201,0.0,0.0,40,0.00,,SCT,0.00,VWS V14.01,2013-06-06 17:22:00,
2013-06-06 10:27:00,68.7,42.8,30.11,NW,317,0.0,0.0,39,0.00,,SCT,0.00,VWS V14.01,2013-06-06 17:27:00,
2013-06-06 10:30:00,69.1,42.4,30.11,NNW,341,0.0,0.0,38,0.00,,SCT,0.00,VWS V14.01,2013-06-06 17:30:00,
2013-06-06 10:32:00,69.3,41.9,30.11,NNW,332,0.0,0.0,37,0.00,,SCT,0.00,VWS V14.01,2013-06-06 17:32:00,
2013-06-06 10:38:00,69.6,42.9,30.11,West,261,0.0,0.0,38,0.00,,SCT,0.00,VWS V14.01,2013-06-06 17:38:00,
2013-06-06 10:43:00,70.2,42.0,30.11,SE,133,0.0,0.0,36,0.00,,SCT,0.00,VWS V14.01,2013-06-06 17:43:00,
2013-06-06 10:45:00,70.2,42.0,30.11,SE,134,0.0,0.0,36,0.00,,SCT,0.00,VWS V14.01,2013-06-06 17:45:00,
2013-06-06 10:48:00,70.3,41.4,30.11,SSE,148,0.0,0.0,35,0.00,,SCT,0.00,VWS V14.01,2013-06-06 17:48:00,
2013-06-06 10:53:00,70.5,41.6,30.11,SE,135,0.0,5.4,35,0.00,,SCT,0.00,VWS V14.01,2013-06-06 17:53:00,
2013-06-06 10:58:00,70.9,41.9,30.11,South,180,0.0,5.4,35,0.00,,SCT,0.00,VWS V14.01,2013-06-06 17:58:00,
2013-06-06 11:00:00,71.1,42.0,30.11,South,172,4.0,5.4,35,0.00,,SCT,0.00,VWS V14.01,2013-06-06 18:00:00,
2013-06-06 11:03:00,71.1,42.0,30.11,NNW,341,6.3,6.3,35,0.00,,SCT,0.00,VWS V14.01,2013-06-06 18:03:00,
2013-06-06 11:08:00,71.2,42.2,30.11,NNW,339,0.0,6.3,35,0.00,,SCT,0.00,VWS V14.01,2013-06-06 18:08:00,
2013-06-06 11:13:00,72.0,42.1,30.11,WNW,292,2.7,6.3,34,0.00,,SCT,0.00,VWS V14.01,2013-06-06 18:13:00,
2013-06-06 11:15:00,72.1,41.5,30.11,West,264,2.7,6.3,33,0.00,,SCT,0.00,VWS V14.01,2013-06-06 18:15:00,
2013-06-06 11:18:00,72.1,41.5,30.11,NW,323,3.1,7.6,33,0.00,,SCT,0.00,VWS V14.01,2013-06-06 18:18:00,
2013-06-06 11:23:00,72.3,42.4,30.11,NW,306,0.0,7.6,34,0.00,,SCT,0.00,VWS V14.01,2013-06-06 18:23:00,
2013-06-06 11:28:00,73.0,42.3,30.11,South,169,0.0,7.6,33,0.00,,SCT,0.00,VWS V14.01,2013-06-06 18:28:00,
2013-06-06 11:30:00,73.2,42.4,30.11,SW,219,0.0,7.6,33,0.00,,SCT,0.00,VWS V14.01,2013-06-06 18:30:00,
2013-06-06 11:33:00,73.2,42.4,30.11,SSE,158,0.0,0.0,33,0.00,,SCT,0.00,VWS V14.01,2013-06-06 18:33:00,
2013-06-06 11:38:00,73.8,42.1,30.11,WNW,284,0.0,0.0,32,0.00,,SCT,0.00,VWS V14.01,2013-06-06 18:38:00,
2013-06-06 11:43:00,74.3,42.6,30.11,NW,316,0.0,0.0,32,0.00,,SCT,0.00,VWS V14.01,2013-06-06 18:43:00,
2013-06-06 11:45:00,74.3,42.6,30.11,NNW,335,0.0,0.0,32,0.00,,SCT,0.00,VWS V14.01,2013-06-06 18:45:00,
2013-06-06 11:48:00,74.3,42.6,30.11,NW,326,0.0,8.1,32,0.00,,SCT,0.00,VWS V14.01,2013-06-06 18:48:00,
2013-06-06 11:53:00,74.5,42.7,30.11,North,357,0.0,8.1,32,0.00,,SCT,0.00,VWS V14.01,2013-06-06 18:53:00,
2013-06-06 11:58:00,74.8,43.0,30.11,SE,140,0.0,8.1,32,0.00,,SCT,0.00,VWS V14.01,2013-06-06 18:58:00,
2013-06-06 12:00:00,75.0,43.2,30.11,SE,141,0.0,8.1,32,0.00,,SCT,0.00,VWS V14.01,2013-06-06 19:00:00,
2013-06-06 12:04:00,75.7,43.0,30.11,NW,311,3.6,3.6,31,0.00,,SCT,0.00,VWS V14.01,2013-06-06 19:04:00,
2013-06-06 12:09:00,76.1,43.3,30.11,NW,307,0.0,5.4,31,0.00,,SCT,0.00,VWS V14.01,2013-06-06 19:09:00,
2013-06-06 12:14:00,76.8,43.9,30.11,WSW,255,0.0,5.4,31,0.00,,SCT,0.00,VWS V14.01,2013-06-06 19:14:00,
2013-06-06 12:15:00,76.8,43.9,30.11,WSW,257,0.0,5.4,31,0.00,,SCT,0.00,VWS V14.01,2013-06-06 19:15:00,
2013-06-06 12:19:00,77.2,43.4,30.11,NW,318,2.7,3.6,30,0.00,,SCT,0.00,VWS V14.01,2013-06-06 19:19:00,
2013-06-06 12:24:00,77.5,43.7,30.11,WNW,300,0.0,3.6,30,0.00,,SCT,0.00,VWS V14.01,2013-06-06 19:24:00,
2013-06-06 12:29:00,78.1,44.2,30.11,West,262,0.0,3.6,30,0.00,,SCT,0.00,VWS V14.01,2013-06-06 19:29:00,
2013-06-06 12:30:00,78.1,44.2,30.11,NW,316,0.0,3.6,30,0.00,,SCT,0.00,VWS V14.01,2013-06-06 19:30:00,
2013-06-06 12:34:00,78.4,44.5,30.11,NNW,330,5.4,6.3,30,0.00,,SCT,0.00,VWS V14.01,2013-06-06 19:34:00,
2013-06-06 12:39:00,79.2,45.1,30.08,West,265,0.0,6.3,30,0.00,,SCT,0.00,VWS V14.01,2013-06-06 19:39:00,
2013-06-06 12:44:00,79.5,44.5,30.08,SE,143,0.0,6.3,29,0.00,,SCT,0.00,VWS V14.01,2013-06-06 19:44:00,
2013-06-06 12:45:00,79.5,44.5,30.08,SE,142,0.0,6.3,29,0.00,,SCT,0.00,VWS V14.01,2013-06-06 19:45:00,
2013-06-06 12:49:00,79.9,45.7,30.08,SSW,208,0.0,0.0,30,0.00,,SCT,0.00,VWS V14.01,2013-06-06 19:49:00,
2013-06-06 12:54:00,80.8,45.6,30.08,NNW,328,2.2,2.7,29,0.00,,SCT,0.00,VWS V14.01,2013-06-06 19:54:00,
2013-06-06 12:59:00,81.1,45.9,30.08,NW,323,3.1,4.0,29,0.00,,SCT,0.00,VWS V14.01,2013-06-06 19:59:00,
2013-06-06 13:00:00,81.3,46.1,30.08,NW,323,0.0,4.0,29,0.00,,SCT,0.00,VWS V14.01,2013-06-06 20:00:00,
2013-06-06 13:04:00,81.7,44.5,30.08,NNW,328,0.0,4.9,27,0.00,,SCT,0.00,VWS V14.01,2013-06-06 20:04:00,
2013-06-06 13:09:00,82.0,45.8,30.08,NW,326,0.0,4.9,28,0.00,,SCT,0.00,VWS V14.01,2013-06-06 20:09:00,
2013-06-06 13:14:00,82.4,44.1,30.08,SE,139,0.0,4.9,26,0.00,,SCT,0.00,VWS V14.01,2013-06-06 20:14:00,
2013-06-06 13:15:00,82.4,44.1,30.08,SE,139,0.0,4.9,26,0.00,,SCT,0.00,VWS V14.01,2013-06-06 20:15:00,
2013-06-06 13:19:00,82.0,44.8,30.08,NW,307,0.0,0.0,27,0.00,,SCT,0.00,VWS V14.01,2013-06-06 20:19:00,
2013-06-06 13:24:00,82.2,44.0,30.08,NNW,332,2.2,7.6,26,0.00,,SCT,0.00,VWS V14.01,2013-06-06 20:24:00,
2013-06-06 13:30:00,82.6,44.3,30.08,NNE,14,0.0,7.6,26,0.00,,SCT,0.00,VWS V14.01,2013-06-06 20:30:00,
2013-06-06 13:35:00,83.3,43.8,30.08,West,278,0.0,7.6,25,0.00,,SCT,0.00,VWS V14.01,2013-06-06 20:35:00,
2013-06-06 13:40:00,84.0,44.5,30.08,NNW,329,0.0,7.6,25,0.00,,SCT,0.00,VWS V14.01,2013-06-06 20:40:00,
2013-06-06 13:45:00,84.0,43.4,30.08,South,190,0.0,0.0,24,0.00,,SCT,0.00,VWS V14.01,2013-06-06 20:45:00,
2013-06-06 13:50:00,84.4,44.8,30.08,North,10,0.0,0.0,25,0.00,,SCT,0.00,VWS V14.01,2013-06-06 20:50:00,
2013-06-06 13:55:00,85.5,45.7,30.08,SSW,202,0.0,0.0,25,0.00,,SCT,0.00,VWS V14.01,2013-06-06 20:55:00,
2013-06-06 14:00:00,86.4,45.3,30.08,NW,305,0.0,0.0,24,0.00,,SCT,0.00,VWS V14.01,2013-06-06 21:00:00,
2013-06-06 14:05:00,86.7,44.5,30.08,SE,143,0.0,4.0,23,0.00,,SCT,0.00,VWS V14.01,2013-06-06 21:05:00,
2013-06-06 14:10:00,87.1,44.8,30.08,NNW,342,0.0,5.4,23,0.00,,SCT,0.00,VWS V14.01,2013-06-06 21:10:00,
2013-06-06 14:15:00,87.1,44.8,30.08,South,187,0.0,0.0,23,0.00,,SCT,0.00,VWS V14.01,2013-06-06 21:15:00,
2013-06-06 14:20:00,87.1,44.8,30.08,NNW,337,0.0,0.0,23,0.00,,SCT,0.00,VWS V14.01,2013-06-06 21:20:00,
2013-06-06 14:25:00,87.3,45.0,30.08,NNW,341,5.4,6.3,23,0.00,,SCT,0.00,VWS V14.01,2013-06-06 21:25:00,
2013-06-06 14:30:00,87.4,44.0,30.08,SE,127,0.0,0.0,22,0.00,,SCT,0.00,VWS V14.01,2013-06-06 21:30:00,
2013-06-06 14:35:00,87.1,43.7,30.08,West,275,0.0,0.0,22,0.00,,SCT,0.00,VWS V14.01,2013-06-06 21:35:00,
2013-06-06 14:40:00,87.1,43.7,30.08,North,0,0.0,0.0,22,0.00,,SCT,0.00,VWS V14.01,2013-06-06 21:40:00,
2013-06-06 14:45:00,87.6,44.1,30.08,NW,318,0.0,3.6,22,0.00,,SCT,0.00,VWS V14.01,2013-06-06 21:45:00,
2013-06-06 14:50:00,88.3,44.7,30.08,WNW,298,0.0,5.4,22,0.00,,SCT,0.00,VWS V14.01,2013-06-06 21:50:00,
2013-06-06 14:55:00,88.9,43.9,30.08,NW,321,0.0,6.3,21,0.00,,SCT,0.00,VWS V14.01,2013-06-06 21:55:00,
2013-06-06 15:00:00,89.2,44.2,30.08,WSW,242,0.0,6.3,21,0.00,,SCT,0.00,VWS V14.01,2013-06-06 22:00:00,
2013-06-06 15:01:00,89.4,44.4,30.08,NW,305,0.0,0.0,21,0.00,,SCT,0.00,VWS V14.01,2013-06-06 22:01:00,
2013-06-06 15:06:00,89.8,43.4,30.08,WSW,249,0.0,0.0,20,0.00,,SCT,0.00,VWS V14.01,2013-06-06 22:06:00,
2013-06-06 15:11:00,89.8,43.4,30.08,WNW,303,0.0,7.6,20,0.00,,SCT,0.00,VWS V14.01,2013-06-06 22:11:00,
2013-06-06 15:15:00,90.1,45.0,30.08,North,3,0.0,7.6,21,0.00,,SCT,0.00,VWS V14.01,2013-06-06 22:15:00,
2013-06-06 15:16:00,90.1,43.7,30.08,SSE,161,0.0,0.0,20,0.00,,SCT,0.00,VWS V14.01,2013-06-06 22:16:00,
2013-06-06 15:21:00,89.6,43.3,30.08,NNE,22,0.0,6.3,20,0.00,,SCT,0.00,VWS V14.01,2013-06-06 22:21:00,
2013-06-06 15:27:00,89.6,43.3,30.08,WSW,256,0.0,6.3,20,0.00,,SCT,0.00,VWS V14.01,2013-06-06 22:27:00,
2013-06-06 15:30:00,89.4,43.1,30.08,NNW,343,0.0,8.1,20,0.00,,SCT,0.00,VWS V14.01,2013-06-06 22:30:00,
2013-06-06 15:32:00,88.9,42.7,30.08,West,271,4.0,10.1,20,0.00,,SCT,0.00,VWS V14.01,2013-06-06 22:32:00,
2013-06-06 15:37:00,88.5,42.4,30.05,NNW,328,0.0,10.1,20,0.00,,SCT,0.00,VWS V14.01,2013-06-06 22:37:00,
2013-06-06 15:42:00,89.4,43.1,30.05,WSW,245,0.0,10.1,20,0.00,,SCT,0.00,VWS V14.01,2013-06-06 22:42:00,
2013-06-06 15:45:00,89.8,43.4,30.05,NNW,331,4.9,10.1,20,0.00,,SCT,0.00,VWS V14.01,2013-06-06 22:45:00,
2013-06-06 15:47:00,89.8,42.1,30.05,WNW,303,3.1,5.8,19,0.00,,SCT,0.00,VWS V14.01,2013-06-06 22:47:00,
2013-06-06 15:52:00,89.4,43.1,30.05,NW,324,3.6,5.8,20,0.00,,SCT,0.00,VWS V14.01,2013-06-06 22:52:00,
2013-06-06 15:57:00,89.6,41.9,30.05,West,263,0.0,9.6,19,0.00,,SCT,0.00,VWS V14.01,2013-06-06 22:57:00,
2013-06-06 16:00:00,89.8,42.1,30.05,NW,323,0.0,9.6,19,0.00,,SCT,0.00,VWS V14.01,2013-06-06 23:00:00,
2013-06-06 16:02:00,90.1,42.4,30.05,SE,136,0.0,3.6,19,0.00,,SCT,0.00,VWS V14.01,2013-06-06 23:02:00,
2013-06-06 16:08:00,90.9,43.0,30.05,NNW,339,0.0,3.6,19,0.00,,SCT,0.00,VWS V14.01,2013-06-06 23:08:00,
2013-06-06 16:13:00,91.0,43.1,30.05,NNW,337,2.2,5.4,19,0.00,,SCT,0.00,VWS V14.01,2013-06-06 23:13:00,
2013-06-06 16:15:00,91.0,43.1,30.05,SSE,167,2.7,5.4,19,0.00,,SCT,0.00,VWS V14.01,2013-06-06 23:15:00,
2013-06-06 16:18:00,91.2,43.2,30.05,WSW,243,0.0,2.7,19,0.00,,SCT,0.00,VWS V14.01,2013-06-06 23:18:00,
2013-06-06 16:23:00,91.2,43.2,30.05,NNW,327,0.0,6.3,19,0.00,,SCT,0.00,VWS V14.01,2013-06-06 23:23:00,
2013-06-06 16:28:00,91.2,43.2,30.05,WSW,246,0.0,7.2,19,0.00,,SCT,0.00,VWS V14.01,2013-06-06 23:28:00,
2013-06-06 16:30:00,91.4,43.4,30.05,West,265,0.0,7.2,19,0.00,,SCT,0.00,VWS V14.01,2013-06-06 23:30:00,
2013-06-06 16:33:00,91.9,42.4,30.05,SW,227,5.4,8.1,18,0.00,,SCT,0.00,VWS V14.01,2013-06-06 23:33:00,
2013-06-06 16:38:00,91.8,42.3,30.05,NNW,327,5.4,8.7,18,0.00,,SCT,0.00,VWS V14.01,2013-06-06 23:38:00,
2013-06-06 16:43:00,91.9,42.4,30.05,West,273,0.0,8.7,18,0.00,,SCT,0.00,VWS V14.01,2013-06-06 23:43:00,
2013-06-06 16:45:00,91.9,42.4,30.05,NNW,345,0.0,8.7,18,0.00,,SCT,0.00,VWS V14.01,2013-06-06 23:45:00,
2013-06-06 16:48:00,91.8,42.3,30.05,SW,225,4.0,4.0,18,0.00,,SCT,0.00,VWS V14.01,2013-06-06 23:48:00,
2013-06-06 16:53:00,91.4,42.0,30.05,NNW,330,2.7,8.3,18,0.00,,SCT,0.00,VWS V14.01,2013-06-06 23:53:00,
2013-06-06 16:58:00,91.8,42.3,30.05,WSW,256,0.0,8.3,18,0.00,,SCT,0.00,VWS V14.01,2013-06-06 23:58:00,
2013-06-06 17:00:00,91.6,42.1,30.05,East,98,0.0,8.3,18,0.00,,SCT,0.00,VWS V14.01,2013-06-07 00:00:00,
2013-06-06 17:03:00,91.6,42.1,30.05,NNW,337,0.0,6.3,18,0.00,,SCT,0.00,VWS V14.01,2013-06-07 00:03:00,
2013-06-06 17:08:00,91.2,41.8,30.05,NW,304,0.0,8.3,18,0.00,,SCT,0.00,VWS V14.01,2013-06-07 00:08:00,
2013-06-06 17:13:00,91.2,43.2,30.05,NW,326,3.1,8.3,19,0.00,,SCT,0.00,VWS V14.01,2013-06-07 00:13:00,
2013-06-06 17:15:00,91.2,41.8,30.05,NNW,327,4.0,8.3,18,0.00,,SCT,0.00,VWS V14.01,2013-06-07 00:15:00,
2013-06-06 17:18:00,91.2,41.8,30.05,WSW,240,0.0,4.0,18,0.00,,SCT,0.00,VWS V14.01,2013-06-07 00:18:00,
2013-06-06 17:23:00,91.2,41.8,30.05,NNW,334,5.8,9.6,18,0.00,,SCT,0.00,VWS V14.01,2013-06-07 00:23:00,
2013-06-06 17:28:00,91.0,41.7,30.05,WNW,288,3.6,9.6,18,0.00,,SCT,0.00,VWS V14.01,2013-06-07 00:28:00,
2013-06-06 17:30:00,90.9,41.5,30.05,NW,321,0.0,9.6,18,0.00,,SCT,0.00,VWS V14.01,2013-06-07 00:30:00,
2013-06-06 17:33:00,90.9,43.0,30.05,NW,321,0.0,5.8,19,0.00,,SCT,0.00,VWS V14.01,2013-06-07 00:33:00,
2013-06-06 17:38:00,91.2,43.2,30.05,West,278,2.7,7.2,19,0.00,,SCT,0.00,VWS V14.01,2013-06-07 00:38:00,
2013-06-06 17:43:00,91.0,43.1,30.05,NW,319,0.0,7.2,19,0.00,,SCT,0.00,VWS V14.01,2013-06-07 00:43:00,
2013-06-06 17:45:00,91.0,43.1,30.05,West,264,0.0,7.2,19,0.00,,SCT,0.00,VWS V14.01,2013-06-07 00:45:00,
2013-06-06 17:48:00,90.7,42.8,30.05,SW,214,3.1,8.7,19,0.00,,SCT,0.00,VWS V14.01,2013-06-07 00:48:00,
2013-06-06 17:53:00,90.3,42.5,30.05,SE,128,0.0,8.7,19,0.00,,SCT,0.00,VWS V14.01,2013-06-07 00:53:00,
2013-06-06 17:59:00,90.1,42.4,30.05,NNW,346,0.0,8.7,19,0.00,,SCT,0.00,VWS V14.01,2013-06-07 00:59:00,
2013-06-06 18:00:00,90.1,42.4,30.05,WNW,286,0.0,8.7,19,0.00,,SCT,0.00,VWS V14.01,2013-06-07 01:00:00,
2013-06-06 18:04:00,89.6,41.9,30.05,West,281,0.0,7.6,19,0.00,,SCT,0.00,VWS V14.01,2013-06-07 01:04:00,
2013-06-06 18:09:00,89.4,43.1,30.05,NNW,328,3.1,7.6,20,0.00,,SCT,0.00,VWS V14.01,2013-06-07 01:09:00,
2013-06-06 18:14:00,89.2,43.0,30.05,NNW,336,2.2,8.1,20,0.00,,SCT,0.00,VWS V14.01,2013-06-07 01:14:00,
2013-06-06 18:15:00,89.2,43.0,30.05,North,10,0.0,8.1,20,0.00,,SCT,0.00,VWS V14.01,2013-06-07 01:15:00,
2013-06-06 18:19:00,89.4,43.1,30.05,NW,318,2.7,7.6,20,0.00,,SCT,0.00,VWS V14.01,2013-06-07 01:19:00,
2013-06-06 18:24:00,89.1,44.1,30.05,North,353,3.1,7.6,21,0.00,,SCT,0.00,VWS V14.01,2013-06-07 01:24:00,
2013-06-06 18:29:00,88.7,43.8,30.05,NNW,334,0.0,7.6,21,0.00,,SCT,0.00,VWS V14.01,2013-06-07 01:29:00,
2013-06-06 18:30:00,88.7,43.8,30.05,NNW,328,0.0,7.6,21,0.00,,SCT,0.00,VWS V14.01,2013-06-07 01:30:00,
2013-06-06 18:34:00,88.2,43.3,30.05,West,278,0.0,7.2,21,0.00,,SCT,0.00,VWS V14.01,2013-06-07 01:34:00,
2013-06-06 18:39:00,86.5,44.4,30.05,North,353,0.0,8.3,23,0.00,,SCT,0.00,VWS V14.01,2013-06-07 01:39:00,
2013-06-06 18:44:00,85.6,43.6,30.05,WNW,288,0.0,8.3,23,0.00,,SCT,0.00,VWS V14.01,2013-06-07 01:44:00,
2013-06-06 18:45:00,85.5,43.5,30.05,NW,319,7.6,8.7,23,0.00,,SCT,0.00,VWS V14.01,2013-06-07 01:45:00,
2013-06-06 18:49:00,84.6,43.8,30.05,North,0,0.0,10.5,24,0.00,,SCT,0.00,VWS V14.01,2013-06-07 01:49:00,
2013-06-06 18:54:00,83.8,44.3,30.05,NNW,343,7.2,10.5,25,0.00,,SCT,0.00,VWS V14.01,2013-06-07 01:54:00,
2013-06-06 18:59:00,83.3,44.9,30.05,West,267,2.7,10.5,26,0.00,,SCT,0.00,VWS V14.01,2013-06-07 01:59:00,
2013-06-06 19:00:00,83.3,44.9,30.05,West,273,2.2,10.5,26,0.00,,SCT,0.00,VWS V14.01,2013-06-07 02:00:00,
2013-06-06 19:04:00,82.6,45.2,30.08,NW,324,2.7,6.7,27,0.00,,SCT,0.00,VWS V14.01,2013-06-07 02:04:00,
2013-06-06 19:09:00,81.9,46.5,30.08,West,270,0.0,6.7,29,0.00,,SCT,0.00,VWS V14.01,2013-06-07 02:09:00,
2013-06-06 19:15:00,81.1,45.9,30.08,WNW,285,3.6,8.7,29,0.00,,SCT,0.00,VWS V14.01,2013-06-07 02:15:00,
2013-06-06 19:20:00,80.6,45.4,30.08,NW,305,3.6,11.0,29,0.00,,SCT,0.00,VWS V14.01,2013-06-07 02:20:00,
2013-06-06 19:25:00,80.1,45.9,30.08,SW,232,3.1,11.0,30,0.00,,SCT,0.00,VWS V14.01,2013-06-07 02:25:00,
2013-06-06 19:30:00,79.7,45.6,30.08,WNW,294,3.1,3.1,30,0.00,,SCT,0.00,VWS V14.01,2013-06-07 02:30:00,
2013-06-06 19:35:00,79.3,46.1,30.08,SSW,207,4.0,6.3,31,0.00,,SCT,0.00,VWS V14.01,2013-06-07 02:35:00,
2013-06-06 19:40:00,78.6,46.3,30.08,NNW,336,4.0,6.3,32,0.00,,SCT,0.00,VWS V14.01,2013-06-07 02:40:00,
2013-06-06 19:45:00,78.3,46.0,30.08,NW,318,2.7,2.7,32,0.00,,SCT,0.00,VWS V14.01,2013-06-07 02:45:00,
2013-06-06 19:50:00,77.9,45.7,30.08,NNW,332,0.0,3.6,32,0.00,,SCT,0.00,VWS V14.01,2013-06-07 02:50:00,
2013-06-06 19:55:00,77.7,45.5,30.08,NNW,342,3.6,3.6,32,0.00,,SCT,0.00,VWS V14.01,2013-06-07 02:55:00,
2013-06-06 20:00:00,77.5,46.2,30.08,WNW,297,0.0,0.0,33,0.00,,SCT,0.00,VWS V14.01,2013-06-07 03:00:00,
2013-06-06 20:05:00,77.0,46.5,30.08,NW,305,4.0,6.3,34,0.00,,SCT,0.00,VWS V14.01,2013-06-07 03:05:00,
2013-06-06 20:10:00,76.3,46.7,30.08,NW,316,3.1,6.3,35,0.00,,SCT,0.00,VWS V14.01,2013-06-07 03:10:00,
2013-06-06 20:15:00,75.6,47.5,30.08,NW,325,3.1,3.6,37,0.00,,SCT,0.00,VWS V14.01,2013-06-07 03:15:00,
2013-06-06 20:20:00,75.0,48.4,30.08,WNW,293,3.1,5.4,39,0.00,,SCT,0.00,VWS V14.01,2013-06-07 03:20:00,
2013-06-06 20:25:00,74.7,48.1,30.08,NW,315,2.7,8.1,39,0.00,,SCT,0.00,VWS V14.01,2013-06-07 03:25:00,
2013-06-06 20:30:00,74.3,47.8,30.08,NNW,329,4.9,8.7,39,0.00,,SCT,0.00,VWS V14.01,2013-06-07 03:30:00,
2013-06-06 20:31:00,74.3,48.4,30.08,NW,323,0.0,4.9,40,0.00,,SCT,0.00,VWS V14.01,2013-06-07 03:31:00,
2013-06-06 20:36:00,73.9,48.1,30.08,NW,307,6.3,6.7,40,0.00,,SCT,0.00,VWS V14.01,2013-06-07 03:36:00,
2013-06-06 20:41:00,73.6,48.5,30.08,WNW,291,0.0,7.6,41,0.00,,SCT,0.00,VWS V14.01,2013-06-07 03:41:00,
2013-06-06 20:45:00,73.4,48.3,30.08,NNW,340,0.0,8.1,41,0.00,,SCT,0.00,VWS V14.01,2013-06-07 03:45:00,
2013-06-06 20:46:00,73.2,48.8,30.08,NW,320,3.1,3.1,42,0.00,,SCT,0.00,VWS V14.01,2013-06-07 03:46:00,
2013-06-06 20:51:00,73.0,48.6,30.08,NNW,331,0.0,4.0,42,0.00,,SCT,0.00,VWS V14.01,2013-06-07 03:51:00,
2013-06-06 20:56:00,72.7,48.3,30.08,NW,326,0.0,5.4,42,0.00,,SCT,0.00,VWS V14.01,2013-06-07 03:56:00,
2013-06-06 21:00:00,72.7,48.9,30.08,NNW,340,0.0,6.3,43,0.00,,SCT,0.00,VWS V14.01,2013-06-07 04:00:00,
2013-06-06 21:01:00,72.5,48.8,30.08,NNW,343,0.0,0.0,43,0.00,,SCT,0.00,VWS V14.01,2013-06-07 04:01:00,
2013-06-06 21:02:00,72.5,48.8,30.08,West,277,0.0,0.0,43,0.00,,SCT,0.00,VWS V14.01,2013-06-07 04:02:00,
2013-06-06 21:07:00,72.5,48.8,30.08,WNW,289,0.0,0.0,43,0.00,,SCT,0.00,VWS V14.01,2013-06-07 04:07:00,
2013-06-06 21:12:00,72.1,48.4,30.08,NNW,337,0.0,0.0,43,0.00,,SCT,0.00,VWS V14.01,2013-06-07 04:12:00,
2013-06-06 21:15:00,72.1,49.0,30.08,WNW,282,2.7,4.0,44,0.00,,SCT,0.00,VWS V14.01,2013-06-07 04:15:00,
2013-06-06 21:17:00,72.0,48.9,30.08,WNW,283,0.0,2.7,44,0.00,,SCT,0.00,VWS V14.01,2013-06-07 04:17:00,
2013-06-06 21:22:00,71.8,48.7,30.11,NNW,330,0.0,5.4,44,0.00,,SCT,0.00,VWS V14.01,2013-06-07 04:22:00,
2013-06-06 21:27:00,71.4,49.0,30.11,NNW,331,0.0,5.4,45,0.00,,SCT,0.00,VWS V14.01,2013-06-07 04:27:00,
2013-06-06 21:30:00,71.2,48.8,30.11,NW,326,0.0,5.4,45,0.00,,SCT,0.00,VWS V14.01,2013-06-07 04:30:00,
2013-06-06 21:32:00,71.1,48.7,30.11,NW,326,0.0,0.0,45,0.00,,SCT,0.00,VWS V14.01,2013-06-07 04:32:00,
2013-06-06 21:37:00,70.7,48.9,30.11,NNW,339,0.0,0.0,46,0.00,,SCT,0.00,VWS V14.01,2013-06-07 04:37:00,
2013-06-06 21:42:00,70.5,48.8,30.11,NNW,342,0.0,0.0,46,0.00,,SCT,0.00,VWS V14.01,2013-06-07 04:42:00,
2013-06-06 21:45:00,70.3,48.6,30.11,NNW,341,0.0,0.0,46,0.00,,SCT,0.00,VWS V14.01,2013-06-07 04:45:00,
2013-06-06 21:47:00,70.2,48.4,30.11,NW,318,0.0,0.0,46,0.00,,SCT,0.00,VWS V14.01,2013-06-07 04:47:00,
2013-06-06 21:52:00,69.8,48.1,30.11,NNW,339,0.0,0.0,46,0.00,,SCT,0.00,VWS V14.01,2013-06-07 04:52:00,
2013-06-06 21:57:00,69.4,48.3,30.11,NNW,329,0.0,0.0,47,0.00,,SCT,0.00,VWS V14.01,2013-06-07 04:57:00,
2013-06-06 22:00:00,69.3,48.2,30.11,NW,326,0.0,3.6,47,0.00,,SCT,0.00,VWS V14.01,2013-06-07 05:00:00,
2013-06-06 22:02:00,69.1,48.6,30.11,North,353,0.0,0.0,48,0.00,,SCT,0.00,VWS V14.01,2013-06-07 05:02:00,
2013-06-06 22:08:00,68.7,48.3,30.11,NNW,339,0.0,4.5,48,0.00,,SCT,0.00,VWS V14.01,2013-06-07 05:08:00,
2013-06-06 22:13:00,68.5,48.6,30.11,NNE,21,0.0,4.5,49,0.00,,SCT,0.00,VWS V14.01,2013-06-07 05:13:00,
2013-06-06 22:15:00,68.5,48.6,30.11,NW,318,0.0,4.5,49,0.00,,SCT,0.00,VWS V14.01,2013-06-07 05:15:00,
2013-06-06 22:18:00,68.4,48.5,30.11,NW,318,0.0,0.0,49,0.00,,SCT,0.00,VWS V14.01,2013-06-07 05:18:00,
2013-06-06 22:23:00,68.2,48.8,30.11,NW,318,0.0,0.0,50,0.00,,SCT,0.00,VWS V14.01,2013-06-07 05:23:00,
2013-06-06 22:28:00,68.2,48.8,30.11,NW,318,0.0,0.0,50,0.00,,SCT,0.00,VWS V14.01,2013-06-07 05:28:00,
2013-06-06 22:30:00,68.2,48.8,30.11,NW,318,0.0,0.0,50,0.00,,SCT,0.00,VWS V14.01,2013-06-07 05:30:00,
2013-06-06 22:33:00,68.2,48.3,30.11,NW,318,0.0,0.0,49,0.00,,SCT,0.00,VWS V14.01,2013-06-07 05:33:00,
2013-06-06 22:38:00,68.0,48.7,30.11,NW,318,0.0,0.0,50,0.00,,SCT,0.00,VWS V14.01,2013-06-07 05:38:00,
2013-06-06 22:43:00,67.6,48.9,30.11,NW,318,0.0,0.0,51,0.00,,SCT,0.00,VWS V14.01,2013-06-07 05:43:00,
2013-06-06 22:45:00,67.5,48.7,30.11,NW,318,0.0,0.0,51,0.00,,SCT,0.00,VWS V14.01,2013-06-07 05:45:00,
2013-06-06 22:48:00,67.1,48.9,30.11,NW,318,0.0,0.0,52,0.00,,SCT,0.00,VWS V14.01,2013-06-07 05:48:00,
2013-06-06 22:53:00,66.9,48.7,30.11,NW,318,0.0,0.0,52,0.00,,SCT,0.00,VWS V14.01,2013-06-07 05:53:00,
2013-06-06 22:58:00,66.6,48.9,30.11,NW,318,0.0,0.0,53,0.00,,SCT,0.00,VWS V14.01,2013-06-07 05:58:00,
2013-06-06 23:00:00,66.4,48.8,30.11,NW,318,0.0,0.0,53,0.00,,SCT,0.00,VWS V14.01,2013-06-07 06:00:00,
2013-06-06 23:03:00,66.2,48.6,30.11,NW,318,0.0,0.0,53,0.00,,SCT,0.00,VWS V14.01,2013-06-07 06:03:00,
2013-06-06 23:08:00,66.0,48.4,30.11,NW,318,0.0,0.0,53,0.00,,SCT,0.00,VWS V14.01,2013-06-07 06:08:00,
2013-06-06 23:13:00,65.8,48.2,30.11,NW,317,0.0,0.0,53,0.00,,SCT,0.00,VWS V14.01,2013-06-07 06:13:00,
2013-06-06 23:15:00,65.7,48.1,30.11,NW,319,0.0,0.0,53,0.00,,SCT,0.00,VWS V14.01,2013-06-07 06:15:00,
2013-06-06 23:19:00,65.5,47.9,30.11,NNW,339,0.0,0.0,53,0.00,,SCT,0.00,VWS V14.01,2013-06-07 06:19:00,
2013-06-06 23:24:00,65.3,47.8,30.11,NNW,333,0.0,3.6,53,0.00,,SCT,0.00,VWS V14.01,2013-06-07 06:24:00,
2013-06-06 23:29:00,65.1,47.6,30.11,NW,326,0.0,3.6,53,0.00,,SCT,0.00,VWS V14.01,2013-06-07 06:29:00,
2013-06-06 23:30:00,64.9,47.9,30.11,NNW,330,0.0,3.6,54,0.00,,SCT,0.00,VWS V14.01,2013-06-07 06:30:00,
2013-06-06 23:34:00,64.8,47.2,30.11,NNE,18,0.0,0.0,53,0.00,,SCT,0.00,VWS V14.01,2013-06-07 06:34:00,
2013-06-06 23:39:00,64.6,47.6,30.11,NW,324,0.0,0.0,54,0.00,,SCT,0.00,VWS V14.01,2013-06-07 06:39:00,
2013-06-06 23:44:00,64.4,47.4,30.11,NNW,346,0.0,6.3,54,0.00,,SCT,0.00,VWS V14.01,2013-06-07 06:44:00,
2013-06-06 23:45:00,64.4,47.4,30.11,NNW,334,0.0,6.3,54,0.00,,SCT,0.00,VWS V14.01,2013-06-07 06:45:00,
2013-06-06 23:49:00,64.2,47.7,30.11,NNW,334,0.0,3.1,55,0.00,,SCT,0.00,VWS V14.01,2013-06-07 06:49:00,
2013-06-06 23:54:00,64.0,47.1,30.11,NNW,332,0.0,3.1,54,0.00,,SCT,0.00,VWS V14.01,2013-06-07 06:54:00,
2013-06-06 23:59:00,63.9,47.4,30.11,NNW,336,0.0,3.1,55,0.00,,SCT,0.00,VWS V14.01,2013-06-07 06:59:00,